sat.trackr.live / text

‹ back to catalog

STARLINK-33828

NORAD 63493 · 2025-071A

PAYLOAD ACTIVE UNKNOWN

§ Identity

Operator
Country
US
Launch date
2025-04-07
Launch site
AFWTR
Launch vehicle
Mass (kg)
RCS (m²)

Purposes: comms

External: N2YO · Heavens-Above · Gunter

§ Orbital elements

Epoch: 2026-05-25T03:44:28.037184Z

Period
93.38 min
Inclination
53.1579°
Eccentricity
0.0000777
Mean motion
15.42167120 rev/d
Perigee alt
439.2 km
Apogee alt
440.2 km
Semi-major
6,817.9 km
B*
3.1056e-4
RAAN
144.3039°
Arg perigee
50.5032°
Mean anomaly
309.6042°
Rev number
6,446

§ Raw data

STARLINK-338281 63493U 25071A   26145.15588006  .00013129  00000+0  31056-3 0  99942 63493  53.1579 144.3039 0000777  50.5032 309.6042 15.42167120 64460

JSON: /api/v1/satellites/63493 · /tle

For live sub-satellite position, see the globe view (requires WebGL).

§ Visibility from observer

Set your observer location to see the next 7 days of passes ≥ 10°. The values pass through the URL so the page stays shareable.

No JS? Fill the form by hand. The geolocation button needs JavaScript.